Location: Beaver Brook Station
(42.3793°N, 71.2203°W)
Time: 02:04:30
(UTC+00:00)

Cosmos 1346 Rocket - Pass Details

Date: 29 October 2020
Orbit: 535 x 543 km, 81.2° (Epoch: 05 December)

Event Time Altitude Azimuth Distance (km) Brightness Sun altitude
Rises 22:16:44 0° 3° (N) 2,715 6.2 -7.1°
Reaches altitude 10° 22:19:18 10° 20° (NNE) 1,818 5.2 -7.6°
Maximum altitude 22:22:26 22° 71° (ENE) 1,228 4.0 -8.2°
Drops below altitude 10° 22:25:34 10° 123° (ESE) 1,807 5.0 -8.7°
Sets 22:28:06 0° 139° (SE) 2,694 6.0 -9.2°
